sat.trackr.live / text

‹ back to catalog

GEESAT-5 04

NORAD 65553 · 2025-201D

PAYLOAD ACTIVE UNKNOWN

§ Identity

Operator
Country
PRC
Launch date
2025-09-08
Launch site
YSLA
Launch vehicle
Mass (kg)
RCS (m²)

External: N2YO · Heavens-Above · Gunter

§ Orbital elements

Epoch: 2026-05-25T00:15:27.504000Z

Period
97.03 min
Inclination
49.9842°
Eccentricity
0.0008077
Mean motion
14.84129101 rev/d
Perigee alt
610.7 km
Apogee alt
622.0 km
Semi-major
6,994.5 km
B*
1.3372e-4
RAAN
147.4452°
Arg perigee
184.1600°
Mean anomaly
175.9272°
Rev number
3,834

§ Raw data

GEESAT-5 041 65553U 25201D   26145.01073500  .00000901  00000+0  13372-3 0  99962 65553  49.9842 147.4452 0008077 184.1600 175.9272 14.84129101 38343

JSON: /api/v1/satellites/65553 · /tle

For live sub-satellite position, see the globe view (requires WebGL).

§ Visibility from observer

Set your observer location to see the next 7 days of passes ≥ 10°. The values pass through the URL so the page stays shareable.

No JS? Fill the form by hand. The geolocation button needs JavaScript.